Location: Arran
(51.9410°N, 101.7372°W)
Time: 13:23:03
(UTC+00:00)

Oscar 19 - Pass Details

Date: 30 November 2023
Orbit: 771 x 789 km, 98.9° (Epoch: 29 February)

Event Time Altitude Azimuth Distance (km) Brightness Sun altitude
Rises 11:22:14 0° 18° (NNE) 3,269 14.1 -28.1°
Reaches altitude 10° 11:24:36 10° 22° (NNE) 2,339 13.3 -27.7°
Maximum altitude 11:29:41 58° 102° (ESE) 908 11.1 -26.9°
Drops below altitude 10° 11:34:45 10° 181° (S) 2,333 13.1 -26.1°
Sets 11:37:06 0° 186° (S) 3,260 13.8 -25.8°
